WWW51 PANC-PAJN

Flight info

Callsign WWW51
Flight time 1h 26m
Altitude 39000
Route DCT JOH J501 YAK DCT FAKES DCT ASORT DCT
Aircraft B736/M-SDE2E3FGHIRWXY/LB1

Departure

Time 2026-05-06 01:33
Airport Ted Stevens Anchorage International Airport (PANC)

Arrival

Time 2026-05-06 02:59
Airport Juneau International Airport (PAJN)
Time Latitude Longitude Altitude Speed Heading
2026-05-06 00:53 61.17912 -149.98760 119 ft 0 kts 174°
2026-05-06 01:17 61.17927 -149.98748 117 ft 3 kts 244°
2026-05-06 01:17 61.17935 -149.98713 118 ft 3 kts 244°
2026-05-06 01:17 61.17936 -149.98708 118 ft 0 kts 244°
2026-05-06 01:22 61.17935 -149.98724 117 ft 7 kts 262°
2026-05-06 01:23 61.17948 -149.98848 116 ft 9 kts 278°
2026-05-06 01:23 61.17935 -149.98977 118 ft 11 kts 248°
2026-05-06 01:23 61.17905 -149.99150 119 ft 13 kts 249°
2026-05-06 01:23 61.17862 -149.99305 119 ft 13 kts 200°
2026-05-06 01:24 61.17780 -149.99256 118 ft 12 kts 154°
2026-05-06 01:24 61.17714 -149.99147 119 ft 12 kts 155°
2026-05-06 01:24 61.17636 -149.99087 116 ft 12 kts 160°
2026-05-06 01:24 61.17560 -149.99032 118 ft 11 kts 160°
2026-05-06 01:25 61.17487 -149.98972 119 ft 11 kts 159°
2026-05-06 01:25 61.17417 -149.98917 117 ft 10 kts 159°
2026-05-06 01:25 61.17349 -149.98869 116 ft 10 kts 161°
2026-05-06 01:25 61.17284 -149.98821 118 ft 10 kts 159°
2026-05-06 01:26 61.17220 -149.98771 118 ft 10 kts 160°
2026-05-06 01:26 61.17155 -149.98714 124 ft 13 kts 145°
2026-05-06 01:26 61.17118 -149.98471 119 ft 19 kts 89°
2026-05-06 01:26 61.17118 -149.98202 116 ft 19 kts 90°
2026-05-06 01:27 61.17119 -149.97938 119 ft 18 kts 90°
2026-05-06 01:27 61.17120 -149.97683 118 ft 17 kts 90°
2026-05-06 01:27 61.17121 -149.97437 119 ft 17 kts 87°
2026-05-06 01:27 61.17130 -149.97203 119 ft 16 kts 86°
2026-05-06 01:28 61.17130 -149.96976 119 ft 15 kts 91°
2026-05-06 01:28 61.17129 -149.96760 119 ft 15 kts 90°
2026-05-06 01:28 61.17129 -149.96550 119 ft 14 kts 89°
2026-05-06 01:28 61.17129 -149.96350 119 ft 14 kts 89°
2026-05-06 01:29 61.17130 -149.96159 120 ft 13 kts 91°
2026-05-06 01:29 61.17129 -149.95973 119 ft 13 kts 90°
2026-05-06 01:29 61.17130 -149.95794 119 ft 12 kts 89°
2026-05-06 01:29 61.17130 -149.95617 119 ft 12 kts 90°
2026-05-06 01:30 61.17129 -149.95448 121 ft 12 kts 91°
2026-05-06 01:30 61.17128 -149.95281 119 ft 11 kts 90°
2026-05-06 01:30 61.17128 -149.95118 119 ft 11 kts 90°
2026-05-06 01:30 61.17128 -149.94959 119 ft 11 kts 90°
2026-05-06 01:31 61.17091 -149.94844 115 ft 11 kts 163°
2026-05-06 01:31 61.17022 -149.94870 120 ft 10 kts 213°
2026-05-06 01:31 61.16982 -149.94982 120 ft 10 kts 265°
2026-05-06 01:31 61.16982 -149.95001 120 ft 0 kts 268°
2026-05-06 01:32 61.16981 -149.95319 122 ft 63 kts 270°
2026-05-06 01:32 61.16978 -149.96853 122 ft 145 kts 268°
2026-05-06 01:32 61.16991 -149.99126 696 ft 164 kts 271°
2026-05-06 01:33 61.17036 -150.01465 1796 ft 160 kts 270°
2026-05-06 01:33 61.17046 -150.03875 2565 ft 178 kts 268°
2026-05-06 01:33 61.17037 -150.06721 2954 ft 214 kts 268°
2026-05-06 01:33 61.17023 -150.09997 3342 ft 239 kts 268°
2026-05-06 01:34 61.16953 -150.13462 4081 ft 245 kts 257°
2026-05-06 01:34 61.16219 -150.16605 4935 ft 242 kts 225°
2026-05-06 01:34 61.14837 -150.18464 5822 ft 238 kts 194°
2026-05-06 01:34 61.13205 -150.18575 6714 ft 236 kts 169°
2026-05-06 01:35 61.11555 -150.18639 7452 ft 243 kts 190°
2026-05-06 01:35 61.09880 -150.18180 8098 ft 250 kts 154°
2026-05-06 01:35 61.08525 -150.16052 9033 ft 250 kts 133°
2026-05-06 01:35 61.07530 -150.12894 9485 ft 275 kts 116°
2026-05-06 01:36 61.06809 -150.09135 10209 ft 289 kts 110°
2026-05-06 01:36 61.06193 -150.05074 10701 ft 310 kts 107°
2026-05-06 01:36 61.05621 -150.00747 11618 ft 312 kts 106°
2026-05-06 01:36 61.05025 -149.96349 12395 ft 323 kts 108°
2026-05-06 01:37 61.04331 -149.91855 13068 ft 335 kts 109°
2026-05-06 01:37 61.03599 -149.87292 13871 ft 341 kts 110°
2026-05-06 01:37 61.02848 -149.82617 14665 ft 345 kts 110°
2026-05-06 01:37 61.02087 -149.77856 15460 ft 350 kts 109°
2026-05-06 01:38 61.01331 -149.73091 16231 ft 355 kts 109°
2026-05-06 01:38 61.00558 -149.68201 17005 ft 361 kts 109°
2026-05-06 01:38 60.99771 -149.63202 17735 ft 369 kts 110°
2026-05-06 01:38 60.98977 -149.58144 18392 ft 376 kts 109°
2026-05-06 01:39 60.98173 -149.53012 19117 ft 379 kts 108°
2026-05-06 01:39 60.97360 -149.47841 19900 ft 381 kts 110°
2026-05-06 01:39 60.96522 -149.42575 20510 ft 388 kts 110°
2026-05-06 01:39 60.95680 -149.37282 21287 ft 391 kts 109°
2026-05-06 01:40 60.94844 -149.32000 22101 ft 393 kts 109°
2026-05-06 01:40 60.93984 -149.26612 22787 ft 398 kts 109°
2026-05-06 01:40 60.93105 -149.21128 23410 ft 404 kts 110°
2026-05-06 01:40 60.92224 -149.15655 23940 ft 409 kts 110°
2026-05-06 01:41 60.91321 -149.10055 24521 ft 413 kts 110°
2026-05-06 01:41 60.90408 -149.04406 25110 ft 417 kts 110°
2026-05-06 01:41 60.89501 -148.98809 25715 ft 419 kts 111°
2026-05-06 01:41 60.88573 -148.93102 26318 ft 422 kts 111°
2026-05-06 01:42 60.87628 -148.87313 26820 ft 428 kts 111°
2026-05-06 01:42 60.86685 -148.81549 27327 ft 433 kts 111°
2026-05-06 01:42 60.85712 -148.75623 27804 ft 437 kts 111°
2026-05-06 01:42 60.84733 -148.69675 28287 ft 441 kts 111°
2026-05-06 01:43 60.83755 -148.63759 28743 ft 445 kts 111°
2026-05-06 01:43 60.82750 -148.57698 29209 ft 450 kts 111°
2026-05-06 01:43 60.81732 -148.51580 29656 ft 455 kts 111°
2026-05-06 01:43 60.80705 -148.45422 30058 ft 459 kts 111°
2026-05-06 01:44 60.79663 -148.39199 30422 ft 462 kts 111°
2026-05-06 01:44 60.78626 -148.33019 30756 ft 465 kts 112°
2026-05-06 01:44 60.77563 -148.26716 31046 ft 469 kts 112°
2026-05-06 01:44 60.76490 -148.20374 31387 ft 471 kts 112°
2026-05-06 01:45 60.75417 -148.14051 31740 ft 473 kts 112°
2026-05-06 01:45 60.74341 -148.07732 32081 ft 475 kts 112°
2026-05-06 01:45 60.73248 -148.01333 32524 ft 474 kts 112°
2026-05-06 01:45 60.72157 -147.94970 32987 ft 473 kts 112°
2026-05-06 01:46 60.71072 -147.88659 33434 ft 472 kts 112°
2026-05-06 01:46 60.69977 -147.82315 33833 ft 471 kts 112°
2026-05-06 01:46 60.68888 -147.76034 34146 ft 471 kts 112°
2026-05-06 01:46 60.67790 -147.69717 34442 ft 471 kts 113°
2026-05-06 01:47 60.66687 -147.63400 34715 ft 472 kts 113°
2026-05-06 01:47 60.65594 -147.57153 34993 ft 473 kts 113°
2026-05-06 01:47 60.64479 -147.50805 35312 ft 472 kts 113°
2026-05-06 01:47 60.63378 -147.44557 35631 ft 471 kts 113°
2026-05-06 01:48 60.62261 -147.38238 35927 ft 471 kts 113°
2026-05-06 01:48 60.61147 -147.31960 36191 ft 471 kts 113°
2026-05-06 01:48 60.60027 -147.25672 36470 ft 471 kts 113°
2026-05-06 01:48 60.58923 -147.19488 36762 ft 471 kts 113°
2026-05-06 01:49 60.57800 -147.13221 37034 ft 471 kts 113°
2026-05-06 01:49 60.56671 -147.06940 37257 ft 471 kts 113°
2026-05-06 01:49 60.55541 -147.00671 37498 ft 471 kts 113°
2026-05-06 01:49 60.54412 -146.94431 37767 ft 471 kts 113°
2026-05-06 01:50 60.53281 -146.88202 38120 ft 469 kts 113°
2026-05-06 01:50 60.52151 -146.81992 38449 ft 467 kts 113°
2026-05-06 01:50 60.51019 -146.75790 38636 ft 468 kts 114°
2026-05-06 01:50 60.49894 -146.69646 38778 ft 469 kts 114°
2026-05-06 01:51 60.47690 -146.57082 38867 ft 474 kts 108°
2026-05-06 01:51 60.46212 -146.44119 38876 ft 472 kts 105°
2026-05-06 01:52 60.44856 -146.31137 38885 ft 468 kts 105°
2026-05-06 01:52 60.43452 -146.18296 38895 ft 466 kts 106°
2026-05-06 01:53 60.42004 -146.05538 38899 ft 465 kts 106°
2026-05-06 01:53 60.40539 -145.92822 38896 ft 466 kts 106°
2026-05-06 01:54 60.39060 -145.80093 38894 ft 467 kts 106°
2026-05-06 01:54 60.37559 -145.67268 38872 ft 468 kts 107°
2026-05-06 01:55 60.36041 -145.54409 38901 ft 470 kts 107°
2026-05-06 01:55 60.34515 -145.41585 38909 ft 472 kts 107°
2026-05-06 01:56 60.32961 -145.28651 38912 ft 474 kts 107°
2026-05-06 01:56 60.31393 -145.15741 38899 ft 475 kts 107°
2026-05-06 01:57 60.29814 -145.02844 38886 ft 476 kts 107°
2026-05-06 01:57 60.28212 -144.89850 38907 ft 475 kts 108°
2026-05-06 01:58 60.26614 -144.76996 38917 ft 475 kts 108°
2026-05-06 01:58 60.24986 -144.64035 38916 ft 475 kts 108°
2026-05-06 01:59 60.23356 -144.51193 38920 ft 474 kts 108°
2026-05-06 01:59 60.21723 -144.38426 38918 ft 473 kts 108°
2026-05-06 02:00 60.20066 -144.25570 38920 ft 472 kts 108°
2026-05-06 02:00 60.18412 -144.12847 38918 ft 471 kts 108°
2026-05-06 02:01 60.16752 -144.00180 38922 ft 470 kts 108°
2026-05-06 02:01 60.15070 -143.87457 38920 ft 470 kts 109°
2026-05-06 02:02 60.13385 -143.74809 38924 ft 470 kts 109°
2026-05-06 02:02 60.11685 -143.62154 38924 ft 471 kts 109°
2026-05-06 02:03 60.09969 -143.49485 38930 ft 471 kts 109°
2026-05-06 02:03 60.08235 -143.36785 38930 ft 471 kts 109°
2026-05-06 02:04 60.06498 -143.24160 38937 ft 472 kts 109°
2026-05-06 02:04 60.04740 -143.11486 38941 ft 472 kts 109°
2026-05-06 02:05 60.02975 -142.98867 38927 ft 472 kts 109°
2026-05-06 02:05 60.01199 -142.86258 38939 ft 472 kts 109°
2026-05-06 02:06 59.99701 -142.75711 38952 ft 472 kts 110°
2026-05-06 02:06 59.97895 -142.63072 38951 ft 473 kts 110°
2026-05-06 02:07 59.96079 -142.50467 38951 ft 473 kts 110°
2026-05-06 02:07 59.95174 -142.44211 38938 ft 460 kts 110°
2026-05-06 02:07 59.94311 -142.38243 38936 ft 445 kts 110°
2026-05-06 02:08 59.93458 -142.32371 38918 ft 434 kts 110°
2026-05-06 02:08 59.92616 -142.26619 38962 ft 430 kts 111°
2026-05-06 02:08 59.90922 -142.15155 38969 ft 430 kts 111°
2026-05-06 02:09 59.89231 -142.03774 38979 ft 429 kts 111°
2026-05-06 02:09 59.87535 -141.92426 38977 ft 429 kts 111°
2026-05-06 02:10 59.85816 -141.80988 38979 ft 430 kts 111°
2026-05-06 02:10 59.84097 -141.69630 38961 ft 430 kts 111°
2026-05-06 02:11 59.82354 -141.58185 38985 ft 430 kts 111°
2026-05-06 02:11 59.80617 -141.46859 38994 ft 431 kts 111°
2026-05-06 02:12 59.78853 -141.35436 38993 ft 432 kts 111°
2026-05-06 02:12 59.77087 -141.24071 38993 ft 433 kts 112°
2026-05-06 02:13 59.75297 -141.12631 38995 ft 433 kts 112°
2026-05-06 02:13 59.73504 -141.01239 38977 ft 434 kts 112°
2026-05-06 02:14 59.71702 -140.89869 38995 ft 434 kts 112°
2026-05-06 02:14 59.69879 -140.78446 39004 ft 434 kts 112°
2026-05-06 02:15 59.68061 -140.67121 39001 ft 434 kts 112°
2026-05-06 02:15 59.66217 -140.55711 38895 ft 436 kts 112°
2026-05-06 02:16 59.65277 -140.49937 38267 ft 441 kts 113°
2026-05-06 02:16 59.64349 -140.44242 37722 ft 440 kts 113°
2026-05-06 02:16 59.63405 -140.38457 37126 ft 439 kts 113°
2026-05-06 02:16 59.62464 -140.32716 36578 ft 439 kts 113°
2026-05-06 02:17 59.61520 -140.26971 36042 ft 438 kts 114°
2026-05-06 02:17 59.60585 -140.21306 35523 ft 438 kts 114°
2026-05-06 02:17 59.59636 -140.15570 35018 ft 437 kts 114°
2026-05-06 02:17 59.58688 -140.09863 34517 ft 437 kts 114°
2026-05-06 02:18 59.57740 -140.04171 34004 ft 433 kts 114°
2026-05-06 02:18 59.56798 -139.98528 33423 ft 433 kts 115°
2026-05-06 02:18 59.55865 -139.92968 32850 ft 433 kts 115°
2026-05-06 02:18 59.54914 -139.87316 32285 ft 433 kts 115°
2026-05-06 02:19 59.53962 -139.81670 31725 ft 434 kts 115°
2026-05-06 02:19 59.53005 -139.76012 31128 ft 434 kts 115°
2026-05-06 02:19 59.52047 -139.70361 30583 ft 434 kts 115°
2026-05-06 02:19 59.51069 -139.64803 30067 ft 432 kts 118°
2026-05-06 02:20 59.48356 -139.54360 28824 ft 429 kts 127°
2026-05-06 02:20 59.46900 -139.49283 28228 ft 434 kts 127°
2026-05-06 02:20 59.45401 -139.44069 27624 ft 437 kts 127°
2026-05-06 02:21 59.43907 -139.38837 27065 ft 437 kts 126°
2026-05-06 02:21 59.42453 -139.33694 26760 ft 432 kts 126°
2026-05-06 02:21 59.40989 -139.28503 26451 ft 436 kts 126°
2026-05-06 02:21 59.39508 -139.23251 26152 ft 441 kts 126°
2026-05-06 02:22 59.38031 -139.18013 25810 ft 442 kts 125°
2026-05-06 02:22 59.36547 -139.12738 25504 ft 439 kts 125°
2026-05-06 02:22 59.35067 -139.07496 25208 ft 437 kts 125°
2026-05-06 02:22 59.33609 -139.02344 24916 ft 435 kts 125°
2026-05-06 02:23 59.32136 -138.97155 24631 ft 434 kts 125°
2026-05-06 02:23 59.30663 -138.91981 24362 ft 432 kts 125°
2026-05-06 02:23 59.29223 -138.86928 24193 ft 428 kts 125°
2026-05-06 02:23 59.27768 -138.81840 24036 ft 425 kts 125°
2026-05-06 02:24 59.26325 -138.76803 23885 ft 423 kts 125°
2026-05-06 02:24 59.24881 -138.71779 23741 ft 423 kts 125°
2026-05-06 02:24 59.23454 -138.66828 23581 ft 423 kts 125°
2026-05-06 02:24 59.22001 -138.61794 23370 ft 423 kts 124°
2026-05-06 02:25 59.20551 -138.56781 23210 ft 423 kts 124°
2026-05-06 02:25 59.19121 -138.51847 23101 ft 422 kts 124°
2026-05-06 02:25 59.17666 -138.46835 22881 ft 423 kts 124°
2026-05-06 02:25 59.16213 -138.41843 22715 ft 423 kts 124°
2026-05-06 02:26 59.14758 -138.36850 22542 ft 422 kts 124°
2026-05-06 02:26 59.13322 -138.31931 22372 ft 412 kts 124°
2026-05-06 02:26 59.11935 -138.27182 22193 ft 403 kts 125°
2026-05-06 02:26 59.10547 -138.22446 22045 ft 400 kts 125°
2026-05-06 02:27 59.09163 -138.17745 21885 ft 400 kts 125°
2026-05-06 02:27 59.07775 -138.13044 21735 ft 400 kts 125°
2026-05-06 02:27 59.06411 -138.08425 21529 ft 393 kts 126°
2026-05-06 02:27 59.05066 -138.03868 21358 ft 382 kts 126°
2026-05-06 02:28 59.03764 -137.99461 21199 ft 370 kts 126°
2026-05-06 02:28 59.02489 -137.95169 21024 ft 361 kts 126°
2026-05-06 02:28 59.01253 -137.91018 20874 ft 356 kts 126°
2026-05-06 02:28 59.00016 -137.86874 20718 ft 354 kts 126°
2026-05-06 02:29 58.98781 -137.82744 20571 ft 352 kts 126°
2026-05-06 02:29 58.97549 -137.78626 20421 ft 355 kts 126°
2026-05-06 02:29 58.96298 -137.74460 20285 ft 359 kts 126°
2026-05-06 02:29 58.95043 -137.70276 20117 ft 358 kts 126°
2026-05-06 02:30 58.93810 -137.66157 19963 ft 355 kts 126°
2026-05-06 02:30 58.92562 -137.62010 19807 ft 355 kts 126°
2026-05-06 02:30 58.91314 -137.57874 19667 ft 354 kts 126°
2026-05-06 02:30 58.90082 -137.53774 19522 ft 356 kts 125°
2026-05-06 02:31 58.88841 -137.49629 19381 ft 355 kts 126°
2026-05-06 02:31 58.87586 -137.45528 19235 ft 352 kts 126°
2026-05-06 02:31 58.86348 -137.41453 19102 ft 351 kts 126°
2026-05-06 02:31 58.85108 -137.37367 19062 ft 351 kts 126°
2026-05-06 02:32 58.83925 -137.33318 19040 ft 349 kts 126°
2026-05-06 02:32 58.82687 -137.29250 19088 ft 352 kts 126°
2026-05-06 02:32 58.81425 -137.25166 19046 ft 352 kts 127°
2026-05-06 02:32 58.80186 -137.21158 19035 ft 349 kts 127°
2026-05-06 02:33 58.78944 -137.17129 19053 ft 347 kts 127°
2026-05-06 02:33 58.78123 -137.14468 19039 ft 346 kts 127°
2026-05-06 02:33 58.75249 -137.05180 19020 ft 349 kts 126°
2026-05-06 02:34 58.74011 -137.01175 19067 ft 351 kts 126°
2026-05-06 02:34 58.72759 -136.97117 19031 ft 349 kts 126°
2026-05-06 02:34 58.71518 -136.93101 19045 ft 348 kts 126°
2026-05-06 02:34 58.70275 -136.89093 18974 ft 350 kts 126°
2026-05-06 02:35 58.69034 -136.85102 18793 ft 350 kts 126°
2026-05-06 02:35 58.67778 -136.81062 18626 ft 348 kts 126°
2026-05-06 02:35 58.66567 -136.77051 18455 ft 348 kts 120°
2026-05-06 02:35 58.65660 -136.72746 18261 ft 355 kts 114°
2026-05-06 02:36 58.64819 -136.68204 17980 ft 365 kts 112°
2026-05-06 02:36 58.63990 -136.63603 17728 ft 363 kts 113°
2026-05-06 02:36 58.63157 -136.59008 17444 ft 361 kts 113°
2026-05-06 02:36 58.62323 -136.54493 17185 ft 359 kts 113°
2026-05-06 02:37 58.61495 -136.50030 16921 ft 358 kts 114°
2026-05-06 02:37 58.60656 -136.45532 16632 ft 356 kts 113°
2026-05-06 02:37 58.59822 -136.41097 16349 ft 344 kts 114°
2026-05-06 02:37 58.59021 -136.36857 16081 ft 330 kts 114°
2026-05-06 02:38 58.58258 -136.32845 15723 ft 321 kts 114°
2026-05-06 02:38 58.57492 -136.28841 15311 ft 316 kts 114°
2026-05-06 02:38 58.56740 -136.24916 14986 ft 307 kts 114°
2026-05-06 02:38 58.56019 -136.21162 14687 ft 298 kts 114°
2026-05-06 02:39 58.55305 -136.17461 14395 ft 293 kts 115°
2026-05-06 02:39 58.54596 -136.13822 14098 ft 289 kts 114°
2026-05-06 02:39 58.53904 -136.10230 13803 ft 285 kts 114°
2026-05-06 02:39 58.53229 -136.06736 13488 ft 283 kts 114°
2026-05-06 02:40 58.52547 -136.03212 13167 ft 279 kts 114°
2026-05-06 02:40 58.51878 -135.99764 12835 ft 273 kts 114°
2026-05-06 02:40 58.51229 -135.96426 12521 ft 268 kts 115°
2026-05-06 02:40 58.50582 -135.93105 12241 ft 265 kts 115°
2026-05-06 02:41 58.49934 -135.89790 11932 ft 263 kts 115°
2026-05-06 02:41 58.49300 -135.86542 11611 ft 261 kts 115°
2026-05-06 02:41 58.48662 -135.83284 11308 ft 260 kts 115°
2026-05-06 02:41 58.48026 -135.80047 11009 ft 259 kts 115°
2026-05-06 02:42 58.47401 -135.76868 10714 ft 257 kts 115°
2026-05-06 02:42 58.46791 -135.73653 10429 ft 257 kts 112°
2026-05-06 02:42 58.46260 -135.70387 10143 ft 256 kts 111°
2026-05-06 02:42 58.45748 -135.67121 10042 ft 258 kts 111°
2026-05-06 02:43 58.45237 -135.63863 10015 ft 260 kts 111°
2026-05-06 02:43 58.44712 -135.60540 9997 ft 259 kts 111°
2026-05-06 02:43 58.44191 -135.57265 10000 ft 257 kts 111°
2026-05-06 02:43 58.43667 -135.54012 10009 ft 255 kts 111°
2026-05-06 02:44 58.43145 -135.50761 9990 ft 255 kts 111°
2026-05-06 02:44 58.42633 -135.47578 10002 ft 253 kts 111°
2026-05-06 02:44 58.42111 -135.44349 9995 ft 252 kts 112°
2026-05-06 02:44 58.41596 -135.41180 9987 ft 252 kts 112°
2026-05-06 02:45 58.41075 -135.37986 9998 ft 252 kts 112°
2026-05-06 02:45 58.40552 -135.34784 9992 ft 253 kts 112°
2026-05-06 02:45 58.40029 -135.31602 9989 ft 254 kts 113°
2026-05-06 02:45 58.39512 -135.28356 9991 ft 260 kts 107°
2026-05-06 02:46 58.39012 -135.25037 10009 ft 257 kts 113°
2026-05-06 02:46 58.38434 -135.21820 9989 ft 258 kts 114°
2026-05-06 02:46 58.37866 -135.18580 9974 ft 257 kts 112°
2026-05-06 02:46 58.37346 -135.15382 9966 ft 254 kts 111°
2026-05-06 02:47 58.36827 -135.12187 9967 ft 250 kts 112°
2026-05-06 02:47 58.36309 -135.09031 9991 ft 249 kts 112°
2026-05-06 02:47 58.35963 -135.05787 9953 ft 260 kts 91°
2026-05-06 02:47 58.36437 -135.02407 9680 ft 272 kts 59°
2026-05-06 02:48 58.37759 -134.99890 9364 ft 269 kts 26°
2026-05-06 02:48 58.39540 -134.99018 8877 ft 266 kts 353°
2026-05-06 02:48 58.41283 -134.99999 8374 ft 261 kts 323°
2026-05-06 02:48 58.42539 -135.02366 7958 ft 255 kts 300°
2026-05-06 02:49 58.43168 -135.05429 7640 ft 244 kts 276°
2026-05-06 02:49 58.43230 -135.08619 7334 ft 236 kts 267°
2026-05-06 02:49 58.43179 -135.11689 7093 ft 227 kts 266°
2026-05-06 02:49 58.43126 -135.14630 6935 ft 216 kts 268°
2026-05-06 02:50 58.43081 -135.17407 6788 ft 209 kts 267°
2026-05-06 02:50 58.43040 -135.20186 6633 ft 209 kts 266°
2026-05-06 02:50 58.42926 -135.22956 6556 ft 209 kts 255°
2026-05-06 02:50 58.42535 -135.24633 6535 ft 210 kts 238°
2026-05-06 02:51 58.41134 -135.27158 6521 ft 213 kts 208°
2026-05-06 02:51 58.40183 -135.27733 6496 ft 217 kts 197°
2026-05-06 02:51 58.38665 -135.27977 6490 ft 223 kts 176°
2026-05-06 02:51 58.36871 -135.26120 6500 ft 231 kts 127°
2026-05-06 02:52 58.36317 -135.24306 6496 ft 238 kts 116°
2026-05-06 02:52 58.36043 -135.21226 6502 ft 241 kts 88°
2026-05-06 02:52 58.36083 -135.17997 6515 ft 244 kts 91°
2026-05-06 02:52 58.36077 -135.14762 6337 ft 248 kts 91°
2026-05-06 02:53 58.36066 -135.11507 6175 ft 244 kts 91°
2026-05-06 02:53 58.36055 -135.08277 5889 ft 241 kts 91°
2026-05-06 02:53 58.36043 -135.05101 5635 ft 237 kts 91°
2026-05-06 02:53 58.36032 -135.01978 5315 ft 239 kts 91°
2026-05-06 02:54 58.36020 -134.98848 4934 ft 232 kts 91°
2026-05-06 02:54 58.36009 -134.95815 4540 ft 225 kts 92°
2026-05-06 02:54 58.35998 -134.92888 4133 ft 220 kts 92°
2026-05-06 02:54 58.35988 -134.90006 3762 ft 213 kts 92°
2026-05-06 02:55 58.35979 -134.87318 3677 ft 192 kts 92°
2026-05-06 02:55 58.35971 -134.84928 3614 ft 170 kts 92°
2026-05-06 02:55 58.36013 -134.82620 3020 ft 184 kts 89°
2026-05-06 02:55 58.36117 -134.80178 2692 ft 178 kts 86°
2026-05-06 02:56 58.36221 -134.77910 2475 ft 168 kts 86°
2026-05-06 02:56 58.36327 -134.75793 2209 ft 154 kts 87°
2026-05-06 02:56 58.36397 -134.73830 2054 ft 142 kts 89°
2026-05-06 02:56 58.36443 -134.72027 1962 ft 133 kts 89°
2026-05-06 02:57 58.36490 -134.70268 1951 ft 135 kts 89°
2026-05-06 02:57 58.36514 -134.68436 1833 ft 143 kts 93°
2026-05-06 02:57 58.36486 -134.66542 1618 ft 143 kts 93°
2026-05-06 02:57 58.36393 -134.64669 1162 ft 143 kts 102°
2026-05-06 02:58 58.36201 -134.62865 785 ft 136 kts 102°
2026-05-06 02:58 58.35995 -134.61182 469 ft 126 kts 107°
2026-05-06 02:58 58.35770 -134.59552 96 ft 131 kts 103°
2026-05-06 02:58 58.35549 -134.57974 34 ft 111 kts 105°
2026-05-06 02:59 58.35379 -134.56780 32 ft 75 kts 105°
2026-05-06 02:59 58.35250 -134.55850 31 ft 61 kts 105°
2026-05-06 02:59 58.35256 -134.55564 30 ft 0 kts 24°
2026-05-06 02:59 58.35257 -134.55561 30 ft 3 kts 28°
2026-05-06 03:00 58.35257 -134.55489 30 ft 8 kts 120°
2026-05-06 03:00 58.35273 -134.55401 31 ft 9 kts
2026-05-06 03:00 58.35310 -134.55482 31 ft 9 kts 289°
2026-05-06 03:00 58.35324 -134.55588 32 ft 8 kts 283°
2026-05-06 03:01 58.35340 -134.55712 32 ft 11 kts 284°
2026-05-06 03:01 58.35360 -134.55855 31 ft 11 kts 285°
2026-05-06 03:01 58.35381 -134.55995 33 ft 11 kts 286°
2026-05-06 03:01 58.35400 -134.56131 31 ft 10 kts 284°
2026-05-06 03:02 58.35419 -134.56263 33 ft 10 kts 284°
2026-05-06 03:02 58.35464 -134.56329 33 ft 10 kts
2026-05-06 03:02 58.35516 -134.56388 31 ft 10 kts 325°
2026-05-06 03:02 58.35577 -134.56423 33 ft 9 kts 315°
2026-05-06 03:03 58.35595 -134.56532 33 ft 8 kts 271°
2026-05-06 03:03 58.35596 -134.56564 33 ft 0 kts 271°